sat.trackr.live / text

‹ back to catalog

SHIYAN-12 01 (SY-12 01)

NORAD 50321 · 2021-129A

PAYLOAD ACTIVE UNKNOWN

§ Identity

Operator
Country
PRC
Launch date
2021-12-23
Launch site
WSC
Launch vehicle
Mass (kg)
RCS (m²)

Purposes: comms

External: N2YO · Heavens-Above · Gunter

§ Orbital elements

Epoch: 2026-05-24T11:00:44.582112Z

Period
1,439.46 min
Inclination
3.6157°
Eccentricity
0.0003851
Mean motion
1.00037720 rev/d
Perigee alt
35,836.1 km
Apogee alt
35,868.6 km
Semi-major
42,230.5 km
B*
0.0000e+0
RAAN
80.2207°
Arg perigee
284.4923°
Mean anomaly
122.5746°
Rev number
1,626

§ Raw data

SHIYAN-12 01 (SY-12 01)1 50321U 21129A   26144.45884933 -.00000087  00000+0  00000+0 0  99912 50321   3.6157  80.2207 0003851 284.4923 122.5746  1.00037720 16265

JSON: /api/v1/satellites/50321 · /tle

For live sub-satellite position, see the globe view (requires WebGL).

§ Visibility from observer

Set your observer location to see the next 7 days of passes ≥ 10°. The values pass through the URL so the page stays shareable.

No JS? Fill the form by hand. The geolocation button needs JavaScript.